{"data":{"norad_id":68707,"intl_designator":"2026-081J","name":"STARLINK-37112","alt_names":[],"object_type":"PAYLOAD","status":"ACTIVE","operator":null,"country":"US","launch_date":"2026-04-14","launch_site_code":"AFETR","launch_vehicle":null,"mission":null,"orbit_class":"UNKNOWN","rcs_meters":null,"size_class":null,"mass_kg":null,"dimensions":null,"purposes":["comms"],"wikipedia_slug":null,"has_3d_model":false,"image_url":null,"decayed_at":null,"tle_current":{"epoch":"2026-09-19T12:11:36.395232Z","epoch_age_seconds":129894,"freshness":"FRESH","line1":"1 68707U 26081J   26262.50806013  .00026409  00000+0  79004-3 0  9999","line2":"2 68707  53.1589 210.5501 0001169  98.4271 261.6865 15.34398396 24464","mean_motion":15.34398396,"eccentricity":0.0001169,"inclination_deg":53.1589,"raan_deg":210.5501,"arg_perigee_deg":98.4271,"mean_anomaly_deg":261.6865,"bstar":0.00079004,"rev_number":2446,"period_min":93.847856186106,"perigee_km":461.90831285589,"apogee_km":463.50770241868,"semimajor_km":6840.8450076373,"source":"CELESTRAK","updated_at":"2026-09-20T09:00:43.958834Z"}}}